Location: Newark
(48.8833°N, 0.9236°W)
Time: 23:34:22
(UTC+00:00)

Transit 4A - Visible Passes

Search period start: 22 November 2019 00:00
Search period end: 02 December 2019 00:00
Orbit: 869 x 976 km, 66.8° (Epoch: 22 November)

Date Brightness Start Highest point End Pass type
(mag) Time Alt. Az. Time Alt. Az. Time Alt. Az.
22 Nov 9.5 04:02:59 23° N 04:04:39 26° NNE 04:09:30 10° E visible
22 Nov 7.8 05:46:31 13° NW 05:51:49 90° NE 05:57:38 10° SSE visible
23 Nov 10.6 02:28:56 11° NE 02:28:56 11° NE 02:29:18 10° NE visible
23 Nov 9.2 04:12:28 27° N 04:14:19 32° NE 04:19:31 10° E visible
23 Nov 7.8 05:56:00 14° NW 06:01:07 66° WSW 06:06:51 10° SSE visible
24 Nov 10.5 02:38:29 13° NE 02:38:29 13° NE 02:39:34 10° ENE visible
24 Nov 8.8 04:22:01 33° N 04:23:53 41° NE 04:29:23 10° ESE visible
24 Nov 8.1 06:05:34 14° NW 06:10:20 46° WSW 06:15:50 10° S visible
25 Nov 10.3 02:48:06 15° NE 02:48:06 15° NE 02:49:49 10° ENE visible
25 Nov 8.3 04:31:39 41° N 04:33:23 55° NE 04:39:06 10° SE visible
25 Nov 8.6 06:15:12 14° NW 06:19:29 32° WSW 06:24:33 10° S visible
26 Nov 10.1 02:57:48 18° ENE 02:57:48 18° ENE 03:00:01 10° E visible
26 Nov 7.8 04:41:21 52° NNW 04:42:49 75° NE 04:48:37 10° SE visible
26 Nov 9.0 06:24:55 13° WNW 06:28:33 22° WSW 06:32:54 10° SSW visible
27 Nov 9.9 03:07:35 21° ENE 03:07:35 21° ENE 03:10:07 10° E visible
27 Nov 7.6 04:51:09 62° NW 04:52:10 81° WSW 04:57:59 10° SSE visible
27 Nov 9.4 06:34:42 11° WNW 06:37:34 15° WSW 06:40:43 10° SW visible
28 Nov 9.8 03:17:27 24° E 03:17:27 24° E 03:20:05 10° ESE visible
28 Nov 7.7 05:01:01 56° W 05:01:26 58° WSW 05:07:07 10° SSE visible
28 Nov 9.9 18:22:18 10° SE 18:22:42 11° SE 18:22:42 11° SE visible
28 Nov 10.2 20:05:37 10° SSW 20:06:17 13° SSW 20:06:17 13° SSW visible
29 Nov 9.6 03:27:24 25° ESE 03:27:24 25° ESE 03:29:54 10° ESE visible
29 Nov 8.2 05:10:59 40° WSW 05:10:59 40° WSW 05:16:00 10° S visible
29 Nov 9.4 18:30:21 10° SSE 18:32:48 20° SE 18:32:48 20° SE visible
29 Nov 10.1 20:15:01 10° SW 20:16:23 17° SW 20:16:23 17° SW visible
30 Nov 9.6 03:37:26 23° SE 03:37:26 23° SE 03:39:32 10° SE visible
30 Nov 8.9 05:21:01 26° SW 05:21:01 26° SW 05:24:36 10° SSW visible
30 Nov 8.8 18:38:51 10° S 18:42:50 31° SE 18:42:50 31° SE visible
30 Nov 10.0 20:24:37 10° SW 20:26:24 20° WSW 20:26:24 20° WSW visible
01 Dec 9.8 03:47:31 19° SE 03:47:31 19° SE 03:49:01 10° SE visible
01 Dec 9.5 05:31:07 16° SW 05:31:07 16° SW 05:32:48 10° SSW visible
01 Dec 8.2 18:47:39 10° S 18:52:47 48° SE 18:52:47 48° SE visible
01 Dec 10.0 20:34:23 10° WSW 20:36:21 20° WSW 20:36:21 20° WSW visible
